Weather History for Buffalo, WY

Change the Weather History Date:

Wednesday, July 10, 2013

  Actual Average Record
Temperature  
Mean Temperature 76 °F 70 °F  
Max Temperature 91 °F 84 °F 93 °F (2012)
Min Temperature 61 °F 56 °F 48 °F (2009)
Degree Days  
Heating Degree Days 0 1  
Month to date heating degree days 0 13  
Since 1 June heating degree days 100 176  
Since 1 July heating degree days 0 13  
Cooling Degree Days 11 6  
Month to date cooling degree days 81 51  
Year to date cooling degree days 168 109  
Since 1 June cooling degree days 158 102  
Growing Degree Days 26 (Base 50)    
Moisture  
Dew Point 49 °F    
Average Humidity 46    
Maximum Humidity 67    
Minimum Humidity 24    
Precipitation  
Precipitation 0.00 in 0.04 in 0.21 in (2001)
Month to date precipitation T 0.51  
Year to date precipitation 4.08 8.31  
Sea Level Pressure  
Sea Level Pressure 29.97 in    
Wind  
Wind Speed 9 mph (WNW)    
Max Wind Speed 22 mph    
Max Gust Speed 26 mph    
Visibility 10 miles    
Events      
T = Trace of Precipitation, MM = Missing Value Source: NWS Daily Summary

Daily Weather History Graph

Daily Weather History Graph

Search for Another Location

Airport:

Trip Planner

Search our weather history database for the weather conditions in past years. The results will help you decide how hot, cold, wet, or windy it might be!

Date:

Astronomy

Jul. 10, 2013 Rise Set
Actual Time 5:32 AM MDT 8:51 PM MDT
Civil Twilight 4:56 AM MDT 9:27 PM MDT
Nautical Twilight 4:10 AM MDT 10:13 PM MDT
Astronomical Twilight 3:12 AM MDT 11:11 PM MDT
Moon 8:03 AM MDT (7/10) 9:54 PM MDT (7/10)
Length of Visible Light 16h 30m
Length of Day
15h 18m
Waxing Crescent, 5% of the Moon is Illuminated
Jul 10
Waxing Crescent
Jul 15
First Quarter
Jul 22
Full
Jul 29
Last Quarter
Aug 6
New

Hourly Weather History & Observations

Time (MDT) Temp. Dew Point Humidity Pressure Visibility Wind Dir Wind Speed Gust Speed Precip Events Conditions
12:53 AM 62.1 °F 50.0 °F 65% 30.10 in 10.0 mi SSW 4.6 mph - N/A   Clear
1:53 AM 63.0 °F 51.1 °F 65% 30.09 in 10.0 mi SSE 9.2 mph - N/A   Scattered Clouds
2:53 AM 62.1 °F 51.1 °F 67% 30.06 in 10.0 mi SSE 12.7 mph - N/A   Clear
3:53 AM 63.0 °F 51.1 °F 65% 30.03 in 10.0 mi South 15.0 mph - N/A   Clear
4:53 AM 66.0 °F 51.1 °F 59% 30.01 in 10.0 mi SSE 17.3 mph - N/A   Clear
5:53 AM 64.9 °F 51.1 °F 61% 30.01 in 10.0 mi South 9.2 mph - N/A   Clear
6:53 AM 66.9 °F 52.0 °F 59% 30.01 in 10.0 mi SE 9.2 mph - N/A   Clear
7:53 AM 71.1 °F 53.1 °F 53% 30.00 in 10.0 mi SSE 6.9 mph - N/A   Clear
8:53 AM 75.9 °F 51.1 °F 42% 30.00 in 10.0 mi SSE 3.5 mph - N/A   Clear
9:53 AM 80.1 °F 48.0 °F 32% 29.99 in 10.0 mi Variable 3.5 mph - N/A   Clear
10:53 AM 82.9 °F 46.0 °F 27% 29.98 in 10.0 mi ENE 4.6 mph - N/A   Clear
11:53 AM 86.0 °F 48.0 °F 27% 29.97 in 10.0 mi North 11.5 mph - N/A   Clear
12:53 PM 86.0 °F 48.9 °F 28% 29.96 in 10.0 mi North 12.7 mph 19.6 mph N/A   Clear
1:53 PM 89.1 °F 48.0 °F 24% 29.94 in 10.0 mi North 13.8 mph 18.4 mph N/A   Clear
2:53 PM 89.1 °F 48.9 °F 25% 29.93 in 10.0 mi NNW 9.2 mph 19.6 mph N/A   Clear
3:53 PM 88.0 °F 46.9 °F 24% 29.92 in 10.0 mi NNW 13.8 mph 19.6 mph N/A   Clear
4:53 PM 89.1 °F 48.0 °F 24% 29.90 in 10.0 mi NNW 12.7 mph - N/A   Clear
5:53 PM 89.1 °F 48.0 °F 24% 29.90 in 10.0 mi NNW 12.7 mph 19.6 mph N/A   Clear
6:53 PM 87.1 °F 46.0 °F 24% 29.90 in 10.0 mi North 8.1 mph - N/A   Clear
7:53 PM 84.0 °F 46.9 °F 27% 29.89 in 10.0 mi North 4.6 mph - N/A   Clear
8:53 PM 75.9 °F 48.9 °F 38% 29.90 in 10.0 mi WNW 3.5 mph - N/A   Clear
9:53 PM 73.0 °F 48.9 °F 42% 29.91 in 10.0 mi WSW 8.1 mph - N/A   Clear
10:53 PM 72.0 °F 48.0 °F 43% 29.91 in 10.0 mi WSW 8.1 mph - N/A   Clear
11:53 PM 70.0 °F 46.9 °F 44% 29.91 in 10.0 mi WSW 5.8 mph - N/A   Clear